Flag for Canada Weather past 2 weeks in Edmonton, Alberta, Canada

Now
66 °F

Mild.


Feels Like: 66 °F
Forecast: 53 / 76 °F
Wind: 6 mph from Southwest

Location: Edmonton Municipal

Current Time: Aug 2, 2015 at 9:21:01 AM

Latest Report: Aug 2, 2015 at 9:00 AM


Visibility: N/A

Pressure: 30.01 "Hg (27.68 "Hg at 692m altitude)

Humidity: 62%

Dew point: 52 °F

Location of EdmontonLocation

Historic Weather in Edmonton — Graph

°F

Edmonton temperature yesterday

Maximum temperature yesterday: 77 °F (at 5:00 PM)
Minimum temperature yesterday: 58 °F (at 8:00 AM)
Average temperature yesterday: 66 °F

Past Weeks' High & Low Weather Summary

 TemperatureHumidityPressure
High84 °F (Jul 31, 6:00 PM)96% (Jul 21, 12:00 AM)30.19 "Hg (Jul 21, 12:00 AM)
Low49 °F (Jul 23, 4:00 AM)26% (Jul 30, 5:00 PM)29.67 "Hg (Jul 20, 10:00 PM)
Average65 °F58%29.90 "Hg
* Reported Jul 18 8:00 AM — Aug 2 8:00 AM, Edmonton, Weather by CustomWeather, © 2015

Note: Actual official high and low records may vary slightly from our data, if they occured in-between our weather recording intervals... More about our weather records

Advertising

Edmonton weather history for previous 24 hours

 ConditionsComfort  
Time TempWeatherWind HumidityBarometerVisibility
8:00 AM
Sun, Aug 2
63 °FMild.6 mph74%30.02 "HgN/A
7:00 AM60 °FCool.1 mph80%30.02 "HgN/A
6:00 AM57 °FCool.5 mph83%30.02 "HgN/A
5:00 AM58 °FCool.5 mph84%30.02 "HgN/A
4:00 AM59 °FCool.2 mph86%30.01 "HgN/A
3:00 AM60 °FCool.1 mph76%30.01 "HgN/A
2:00 AM58 °FCool.1 mph87%30.01 "HgN/A
1:00 AM62 °FMild.2 mph73%30.01 "HgN/A
12:00 AM63 °FMild.No wind71%30.02 "HgN/A
11:00 PM
Sat, Aug 1
64 °FMild.3 mph63%30.01 "HgN/A
10:00 PM67 °FMild.2 mph52%30.00 "HgN/A
9:00 PM70 °FMild.5 mph48%29.98 "HgN/A
8:00 PM74 °FMild.7 mph37%29.97 "HgN/A
7:00 PM73 °FMild.8 mph42%29.97 "HgN/A
6:00 PM74 °FMild.10 mph34%29.96 "HgN/A
5:00 PM77 °FMild.9 mph34%29.95 "HgN/A
4:00 PM75 °FMild.14 mph39%29.96 "HgN/A
3:00 PM75 °FMild.8 mph39%29.97 "HgN/A
2:00 PM69 °FMild.7 mph61%29.98 "HgN/A
1:00 PM67 °FMild.6 mph69%29.99 "HgN/A
12:00 PM60 °FCool.6 mph82%30.01 "HgN/A
11:00 AM62 °FCool.9 mph71%30.01 "HgN/A
10:00 AM63 °FMild.5 mph74%29.99 "HgN/A
9:00 AM59 °FCool.3 mph87%29.99 "HgN/A
Weather by CustomWeather, © 2015

See weather overviewHow to use our weather pages